Hutchinson, MN

11:42 PM CDT on March 28, 2017 (GMT -0500)
Hutchinson Municipal-Butler

Weather History for KHCD - December, 2013

Change the Weather History Date:

Tuesday, December 24, 2013

  Actual Average Record
Temperature  
Mean Temperature -4 °F -  
Max Temperature 11 °F 22 °F 44 °F (2011)
Min Temperature -18 °F 3 °F -28 °F (1983)
Degree Days  
Heating Degree Days 68    
Moisture  
Dew Point -11 °F    
Average Humidity 74    
Maximum Humidity 88    
Minimum Humidity 58    
Precipitation  
Precipitation 0.00 in - - ()
Sea Level Pressure  
Sea Level Pressure 30.28 in    
Wind  
Wind Speed 6 mph (SE)    
Max Wind Speed 17 mph    
Max Gust Speed 23 mph    
Visibility 8 miles    
Events Snow    
Averages and records for this station are not official NWS values.
T = Trace of Precipitation, MM = Missing Value Source: NWS Daily Summary

Daily Weather History Graph

Daily Weather History Graph

Search for Another Location

Airport or City:

Trip Planner

Search our weather history database for the weather conditions in past years. The results will help you decide how hot, cold, wet, or windy it might be!

Date:

Astronomy

Dec. 24, 2013 Rise Set
Actual Time 7:53 AM CST 4:41 PM CST
Civil Twilight 7:19 AM CST 5:14 PM CST
Nautical Twilight 6:42 AM CST 5:51 PM CST
Astronomical Twilight 6:07 AM CST 6:27 PM CST
Moon No Moon Rise 11:31 AM CST (12/24)
Length of Visible Light 9h 54m
Length of Day
8h 47m
Waning Gibbous, 58% of the Moon is Illuminated
Dec 24
Waning Gibbous
Dec 25
Last Quarter
Jan 1
New
Jan 7
First Quarter
Jan 15
Full

Hourly Weather History & Observations

Time (CST) Temp. Windchill Dew Point Humidity Pressure Visibility Wind Dir Wind Speed Gust Speed Precip Events Conditions
12:13 AM -16.1 °F -30.6 °F -21.3 °F 77% 30.47 in 10.0 mi West 5.8 mph - N/A   Clear
12:33 AM -16.2 °F -26.4 °F -21.3 °F 78% 30.46 in 10.0 mi West 3.5 mph - N/A   Clear
12:53 AM -16.2 °F - -21.5 °F 77% 30.45 in 10.0 mi Calm Calm - N/A   Clear
1:13 AM -16.8 °F - -22.0 °F 77% 30.45 in 10.0 mi Calm Calm - N/A   Clear
1:33 AM -17.3 °F - -22.5 °F 77% 30.44 in 10.0 mi Calm Calm - N/A   Clear
1:54 AM -17.7 °F - -22.4 °F 79% 30.44 in 10.0 mi Calm Calm - N/A   Clear
2:14 AM -17.9 °F - -22.5 °F 79% 30.43 in 10.0 mi Calm Calm - N/A   Clear
2:33 AM -18.0 °F - -23.1 °F 78% 30.43 in 10.0 mi Calm Calm - N/A   Clear
2:54 AM -18.0 °F - -22.5 °F 80% 30.43 in 10.0 mi Calm Calm - N/A   Clear
3:13 AM -18.2 °F - -22.9 °F 79% 30.43 in 10.0 mi Calm Calm - N/A   Clear
3:34 AM -17.5 °F -30.3 °F -22.7 °F 77% 30.39 in 10.0 mi SE 4.6 mph - N/A   Clear
3:53 AM -18.0 °F - -23.1 °F 78% 30.39 in 10.0 mi Calm Calm - N/A   Clear
4:13 AM -18.4 °F -28.9 °F -23.3 °F 78% 30.38 in 10.0 mi SSE 3.5 mph - N/A   Clear
4:34 AM -18.2 °F - -23.1 °F 78% 30.37 in 10.0 mi Calm Calm - N/A   Clear
4:53 AM -17.9 °F -28.2 °F -22.9 °F 78% 30.38 in 10.0 mi SSE 3.5 mph - N/A   Clear
5:14 AM -18.0 °F -30.9 °F -23.1 °F 78% 30.38 in 10.0 mi South 4.6 mph - N/A   Clear
5:33 AM -17.5 °F - -22.9 °F 76% 30.38 in 10.0 mi Calm Calm - N/A   Clear
5:54 AM -17.3 °F -32.1 °F -22.4 °F 78% 30.36 in 10.0 mi ESE 5.8 mph - N/A   Clear
6:14 AM -17.5 °F -30.3 °F -22.7 °F 77% 30.36 in 10.0 mi ESE 4.6 mph - N/A   Clear
6:34 AM -18.0 °F -33.0 °F -23.3 °F 77% 30.36 in 10.0 mi SE 5.8 mph - N/A   Clear
6:53 AM -17.5 °F -32.3 °F -22.9 °F 76% 30.34 in 10.0 mi ESE 5.8 mph - N/A   Clear
7:14 AM -16.1 °F -32.3 °F -21.1 °F 78% 30.32 in 10.0 mi ESE 6.9 mph - N/A   Clear
7:33 AM -15.0 °F -32.4 °F -20.0 °F 78% 30.32 in 10.0 mi ESE 8.1 mph - N/A   Clear
7:53 AM -13.5 °F -33.0 °F -18.8 °F 77% 30.29 in 10.0 mi East 10.4 mph - N/A   Clear
8:14 AM -13.5 °F -31.9 °F -19.3 °F 75% 30.29 in 10.0 mi SE 9.2 mph - N/A   Clear
8:33 AM -13.0 °F -28.6 °F -18.8 °F 75% 30.28 in 10.0 mi SE 6.9 mph - N/A   Clear
8:53 AM -11.4 °F -26.7 °F -18.0 °F 72% 30.30 in 10.0 mi South 6.9 mph - N/A   Clear
9:14 AM -7.6 °F -20.6 °F -15.5 °F 68% 30.29 in 10.0 mi SSE 5.8 mph - N/A   Clear
9:34 AM -6.0 °F -18.6 °F -15.3 °F 64% 30.30 in 10.0 mi SSE 5.8 mph - N/A   Clear
9:53 AM -5.1 °F -17.6 °F -14.8 °F 63% 30.30 in 10.0 mi South 5.8 mph - N/A   Clear
10:14 AM -3.1 °F -16.7 °F -13.7 °F 61% 30.29 in 10.0 mi SSE 6.9 mph - N/A   Mostly Cloudy
10:33 AM -2.2 °F -18.0 °F -13.9 °F 58% 30.29 in 10.0 mi SE 9.2 mph - N/A   Overcast
10:54 AM -0.8 °F -18.9 °F -11.7 °F 60% 30.27 in 10.0 mi SE 12.7 mph - N/A   Overcast
11:13 AM 1.0 °F -14.9 °F -9.9 °F 60% 30.27 in 10.0 mi SE 10.4 mph - N/A   Overcast
11:33 AM 2.1 °F -14.4 °F -8.5 °F 61% 30.25 in 10.0 mi SE 11.5 mph - N/A   Overcast
11:53 AM 3.9 °F -12.2 °F -7.2 °F 60% 30.24 in 10.0 mi SE 11.5 mph - N/A   Overcast
12:14 PM 5.0 °F -13.0 °F -6.2 °F 60% 30.23 in 10.0 mi SE 15.0 mph - N/A   Overcast
12:34 PM 5.5 °F -12.9 °F -5.6 °F 60% 30.20 in 10.0 mi SE 16.1 mph - N/A   Overcast
12:54 PM 6.8 °F -10.0 °F -3.8 °F 62% 30.20 in 10.0 mi SE 13.8 mph - N/A   Overcast
1:13 PM 7.9 °F -8.0 °F -3.1 °F 61% 30.19 in 10.0 mi SE 12.7 mph - N/A   Overcast
1:34 PM 9.0 °F -9.0 °F -1.7 °F 62% 30.17 in 10.0 mi SE 17.3 mph - N/A   Overcast
1:53 PM 9.9 °F -6.7 °F -1.7 °F 60% 30.16 in 10.0 mi SE 15.0 mph - N/A   Overcast
2:14 PM 9.9 °F -6.7 °F -0.4 °F 63% 30.15 in 10.0 mi SE 15.0 mph 20.7 mph N/A   Overcast
2:33 PM 10.2 °F -5.7 °F 1.8 °F 69% 30.15 in 7.0 mi SE 13.8 mph 20.7 mph N/A   Overcast
2:54 PM 9.9 °F -7.9 °F 3.2 °F 74% 30.14 in 5.0 mi SE 17.3 mph 23.0 mph N/A   Haze
3:13 PM 9.9 °F -6.1 °F 3.2 °F 74% 30.14 in 10.0 mi SE 13.8 mph 19.6 mph N/A   Overcast
3:34 PM 10.2 °F -4.3 °F 3.6 °F 74% 30.15 in 10.0 mi SE 11.5 mph 18.4 mph N/A   Overcast
3:53 PM 10.6 °F -3.8 °F 4.3 °F 76% 30.15 in 10.0 mi SE 11.5 mph - N/A Snow Light Snow
4:13 PM 11.3 °F -0.4 °F 6.8 °F 82% 30.15 in 1.5 mi SSE 8.1 mph 16.1 mph N/A Snow Light Snow
4:33 PM 11.3 °F -0.4 °F 6.8 °F 82% 30.15 in 4.0 mi SSE 8.1 mph 16.1 mph N/A Snow Light Snow
4:54 PM 11.1 °F -0.6 °F 7.3 °F 85% 30.15 in 2.5 mi SSE 8.1 mph - N/A Snow Light Snow
5:13 PM 10.9 °F -0.8 °F 7.3 °F 85% 30.14 in 1.5 mi SE 8.1 mph - N/A Snow Light Snow
5:34 PM 10.9 °F 0.2 °F 7.7 °F 87% 30.14 in 1.0 mi SE 6.9 mph - N/A Snow Snow
5:54 PM 11.1 °F 1.7 °F 7.7 °F 86% 30.15 in 1.2 mi SSE 5.8 mph - N/A Snow Light Snow
6:13 PM 10.8 °F -1.1 °F 7.9 °F 88% 30.14 in 0.5 mi SSE 8.1 mph - N/A Snow Snow
6:33 PM 10.4 °F -3.3 °F 7.5 °F 88% 30.14 in 0.8 mi SSE 10.4 mph - N/A Snow Snow
6:49 PM 10.4 °F -0.4 °F 7.5 °F 88% 30.14 in 1.0 mi SSE 6.9 mph - N/A Snow Light Snow